sat.trackr.live / text

‹ back to catalog

STARLINK-35131

NORAD 66075 · 2025-235T

PAYLOAD ACTIVE UNKNOWN

§ Identity

Operator
Country
US
Launch date
2025-10-19
Launch site
AFETR
Launch vehicle
Mass (kg)
RCS (m²)

Purposes: comms

External: N2YO · Heavens-Above · Gunter

§ Orbital elements

Epoch: 2026-05-24T23:53:55.456800Z

Period
94.11 min
Inclination
53.1574°
Eccentricity
0.0001082
Mean motion
15.30201208 rev/d
Perigee alt
474.5 km
Apogee alt
476.0 km
Semi-major
6,853.3 km
B*
5.2153e-4
RAAN
250.8792°
Arg perigee
89.2270°
Mean anomaly
270.8855°
Rev number
3,460

§ Raw data

STARLINK-351311 66075U 25235T   26144.99578075  .00015119  00000+0  52153-3 0  99932 66075  53.1574 250.8792 0001082  89.2270 270.8855 15.30201208 34603

JSON: /api/v1/satellites/66075 · /tle

For live sub-satellite position, see the globe view (requires WebGL).

§ Visibility from observer

Set your observer location to see the next 7 days of passes ≥ 10°. The values pass through the URL so the page stays shareable.

No JS? Fill the form by hand. The geolocation button needs JavaScript.